Regional Weather Roundup
Issued by NWS Glasgow, MT

Home | Current Version | Previous Version | Text Only | Print | Product List | Glossary On
Versions: 1 2 3 4 5 6 7 8 9 10 11 12 13 14 15 16 17 18 19 20 21 22 23 24 25 26 27 28 29 30 31 32 33 34 35 36 37 38 39 40 41 42 43 44 45 46 47 48 49 50
000
ASUS45 KGGW 032315
RWRGGW
HOURLY REGIONAL WEATHER ROUNDUP FOR NORTHEAST MONTANA
NATIONAL WEATHER SERVICE GLASGOW MONTANA
500 PM MDT THU SEP 03 2015

NOTE: "FAIR" INDICATES FEW OR NO CLOUDS BELOW 12,000 FEET WITH NO
SIGNIFICANT WEATHER AND/OR OBSTRUCTIONS TO VISISBILITY.

NORTHEAST MONTANA


CITY           SKY/WX    TMP DP  RH WIND       PRES   REMARKS
GLASGOW        MOSUNNY   80  38  22 N18       29.79R
PLENTYWOOD       N/A     77  39  25 N17G28      N/A
WOLF POINT     PTSUNNY   84  43  23 N18G28    29.76R
JORDAN           N/A     79  42  26 NE14G22   29.77F
WINNETT          N/A     76  35  22 NE10        N/A
SIDNEY         MOSUNNY   84  50  30 N10         N/A
GLENDIVE       MOSUNNY   82  46  28 N13       29.74R
MALTA            N/A     78  39  24 NE9         N/A
SCOBEY           N/A     73  40  30 N17G24    29.83R
OPHEIM           N/A     68  32  26 N15       29.63R

FORT PECK REPORTS


CITY           SKY/WX    TMP DP  RH WIND       PRES   REMARKS
THE PINES        N/A     78  44  29 NE9         N/A

SOUTHEAST MONTANA


CITY           SKY/WX    TMP DP  RH WIND       PRES   REMARKS
BILLINGS       PTSUNNY   77  37  23 NE6       29.85R
MILES CITY     PTSUNNY   87  44  22 NE13      29.73F
BAKER          MOSUNNY   88  45  22 NE9       29.74F
LIVINGSTON     MOSUNNY   76  38  25 E21G32    29.78F

CENTRAL MONTANA


CITY           SKY/WX    TMP DP  RH WIND       PRES   REMARKS
HAVRE          CLOUDY    67  40  37 N13       29.88S
LEWISTOWN      SUNNY     74  38  27 E14       29.85F
GREAT FALLS    CLOUDY    58  41  53 N14       29.92R
CUT BANK       CLOUDY    52  44  74 SW5       29.95S
HELENA         LGT RAIN  59  44  57 N7        29.90R
BUTTE          CLOUDY    55  40  56 W10       29.91F
BOZEMAN        PTSUNNY   71  41  33 W14       29.82R

WESTERN MONTANA


CITY           SKY/WX    TMP DP  RH WIND       PRES   REMARKS
MISSOULA       CLOUDY    52  47  83 SE7       29.98S
KALISPELL      NOT AVBL

NORTH DAKOTA


CITY           SKY/WX    TMP DP  RH WIND       PRES   REMARKS
WILLISTON      MOSUNNY   86  50  28 N14       29.72S
DICKINSON      SUNNY     90  54  29 N6        29.70F
MINOT          MOSUNNY   90  68  48 N10       29.64R
BISMARCK       PTSUNNY   99  60  27 S17       29.64S

SOUTHERN SASKATCHEWAN


CITY           SKY/WX    TMP DP  RH WIND       PRES   REMARKS
REGINA         PTSUNNY   70  39  32 N18G25    29.81S
MOOSE JAW      PTSUNNY   70  39  32 N16G24    29.86R
ESTEVAN        CLOUDY    79  59  50 N17       29.73R
SWIFT CURRENT  PTSUNNY   59  43  55 N12G18    29.93R



USA.gov is the U.S. government's official web portal to all federal, state and local government web resources and services.